Flag for Finland Weather past 2 weeks in Kemi, Finland

Now
30 °F

Ice fog.


Feels Like: 20 °F
Forecast: 34 / 37 °F
Wind: 13 mph from South

Location: Kemi Airport

Current Time: Mar 29, 2015 at 6:08:44 AM

Latest Report: Mar 29, 2015 at 5:20 AM


Visibility: 1 mi

Pressure: 29.68 "Hg

Humidity: 100%

Dew point: 30 °F

Location of KemiLocation

Historic Weather in Kemi — Graph

°F

Kemi temperature yesterday

Maximum temperature yesterday: 34 °F (at 4:50 PM)
Minimum temperature yesterday: 30 °F (at 12:20 AM)
Average temperature yesterday: 32 °F

Past Weeks' High & Low Weather Summary

 TemperatureHumidityPressure
High43 °F (Mar 14, 11:20 AM)100% (Mar 14, 8:20 PM)30.95 "Hg (Mar 14, 8:20 PM)
Low-2 °F (Mar 25, 6:28 AM)35% (Mar 27, 4:20 PM)29.09 "Hg (Mar 23, 8:20 PM)
Average27 °F79%30.15 "Hg
* Reported Mar 14 3:20 AM — Mar 29 4:50 AM, Kemi, Weather by CustomWeather, © 2015

Note: Actual official high and low records may vary slightly from our data, if they occured in-between our weather recording intervals... More about our weather records

Advertising

Kemi weather history for previous 24 hours

 ConditionsComfort  
Time TempWeatherWind HumidityBarometerVisibility
4:50 AM
Sun, Mar 29
32 °FIce fog.14 mph100%29.68 "Hg1 mi
4:20 AM32 °FIce fog.14 mph100%29.68 "Hg1 mi
2:50 AM32 °FIce fog.13 mph100%29.68 "Hg0 mi
2:20 AM32 °FIce fog.10 mph100%29.71 "Hg0 mi
1:50 AM32 °FIce fog.8 mph100%29.68 "Hg1 mi
1:20 AM32 °FIce fog.10 mph100%29.71 "Hg1 mi
12:50 AM30 °FIce fog.7 mph100%29.71 "Hg0 mi
12:20 AM30 °FIce fog.8 mph100%29.71 "Hg0 mi
11:50 PM
Sat, Mar 28
30 °FIce fog.8 mph100%29.71 "Hg1 mi
11:20 PM30 °FMostly cloudy.8 mph100%29.71 "Hg6 mi
10:50 PM32 °FMostly cloudy.7 mph100%29.71 "HgN/A
10:20 PM32 °FLow clouds.6 mph100%29.71 "HgN/A
9:50 PM32 °FOvercast.5 mph100%29.71 "HgN/A
9:20 PM32 °FOvercast.5 mph100%29.71 "HgN/A
8:50 PM32 °FOvercast.6 mph100%29.71 "HgN/A
8:20 PM32 °FOvercast.6 mph100%29.71 "HgN/A
7:50 PM32 °FLow clouds.6 mph100%29.71 "HgN/A
7:20 PM32 °FLow clouds.6 mph100%29.68 "HgN/A
6:50 PM32 °FOvercast.5 mph100%29.68 "HgN/A
6:20 PM34 °FLow clouds.6 mph100%29.68 "HgN/A
5:50 PM34 °FLow clouds.3 mph100%29.68 "HgN/A
5:20 PM34 °FLow clouds.6 mph100%29.68 "HgN/A
4:50 PM34 °FLow clouds.5 mph100%29.68 "HgN/A
4:20 PM32 °FSnow flurries. Low clouds.6 mph100%29.65 "HgN/A
3:50 PM32 °FLight rain. Low clouds.5 mph100%29.65 "HgN/A
3:20 PM32 °FSleet. Low clouds.7 mph100%29.65 "HgN/A
2:50 PM32 °FSleet. Low clouds.9 mph100%29.65 "Hg4 mi
2:20 PM32 °FSleet. Low clouds.9 mph100%29.65 "Hg5 mi
1:50 PM32 °FSleet. Low clouds.9 mph100%29.65 "Hg4 mi
1:20 PM32 °FLight rain. Low clouds.10 mph100%29.65 "Hg1 mi
12:50 PM32 °FRain. Low clouds.8 mph100%29.65 "Hg1 mi
12:20 PM32 °FRain. Low clouds.8 mph100%29.65 "Hg1 mi
11:50 AM32 °FRain. Low clouds.9 mph100%29.68 "Hg1 mi
11:20 AM32 °FRain. Low clouds.9 mph100%29.68 "Hg1 mi
10:50 AM32 °FRain. Low clouds.9 mph100%29.68 "Hg1 mi
10:20 AM32 °FRain. Low clouds.9 mph100%29.68 "Hg1 mi
9:50 AM32 °FRain. Low clouds.12 mph100%29.68 "Hg1 mi
9:20 AM32 °FLight rain. Low clouds.10 mph100%29.71 "Hg1 mi
8:50 AM32 °FRain. Low clouds.10 mph100%29.71 "Hg1 mi
8:20 AM32 °FLight rain. Low clouds.10 mph100%29.74 "Hg1 mi
7:50 AM32 °FLight rain. Low clouds.10 mph100%29.74 "Hg1 mi
7:20 AM32 °FLight rain. Low clouds.12 mph100%29.74 "Hg1 mi
6:50 AM32 °FLight rain. Low clouds.13 mph100%29.74 "Hg1 mi
6:20 AM32 °FLight rain. Low clouds.13 mph100%29.77 "Hg1 mi
Weather by CustomWeather, © 2015

See weather overviewHow to use our weather pages